Regional Weather Roundup
Issued by NWS

Home | Current Version | Previous Version | Graphics & Text | Print | Product List | Glossary On
Versions: 1 2 3 4 5 6 7 8 9 10 11 12 13 14 15 16 17 18 19 20 21 22 23 24 25 26 27 28 29 30 31 32 33 34 35 36 37 38 39 40 41 42 43 44 45 46 47 48 49 50
000
ASUS43 KMPX 241301
RWRMN
WEATHER ROUNDUP FOR MINNESOTA
NATIONAL WEATHER SERVICE TWIN CITIES/CHANHASSEN MN
800 AM CDT SUN JUL 24 2016


NOTE: "FAIR" INDICATES FEW OR NO CLOUDS BELOW 12,000 FEET WITH NO
SIGNIFICANT WEATHER AND/OR OBSTRUCTIONS TO VISIBILITY. N/A MEANS
CURRENT SKY AND/OR WEATHER CONDITIONS ARE NOT AVAILABLE.

MNZ060>063-068>070-241400-
   Twin Cities Metro

CITY           SKY/WX    TMP DP  RH WIND       PRES   REMARKS
TWIN CITIES    MOSUNNY   76  70  82 NW8       29.83R
ST PAUL        MOSUNNY   76  71  85 W8        29.82R
CRYSTAL        SUNNY     76  69  79 W8        29.82R
BLAINE         MOSUNNY   75  75 100 W6        29.82R
LAKEVILLE      SUNNY     73  72  94 NW9       29.84R
EDEN PRAIRIE   SUNNY     76  69  79 W7        29.84R
LAKEVILLE      SUNNY     73  72  94 NW9       29.84R
SOUTH ST PAUL  SUNNY     76  71  85 W5        29.82R
LAKE ELMO      FAIR      73  72  94 CALM      29.83R
$$
MNZ001>005-007-008-013>017-022>024-027-028-241400-
   Northwest Minnesota

CITY           SKY/WX    TMP DP  RH WIND       PRES   REMARKS
HALLOCK        SUNNY     64  61  88 W9        29.79S
ROSEAU         MOSUNNY   64  59  82 W9G16     29.78R
WARROAD        MOSUNNY   63  59  88 W12       29.76R
THIEF RVR FALL SUNNY     64  60  87 W13       29.83R
CROOKSTON      SUNNY     64  61  88 NW9       29.85R
FOSSTON        SUNNY     64  57  77 W10       29.85R
DETROIT LAKES  SUNNY     64  61  88 NW14G20   29.88R
MOORHEAD       SUNNY     66  61  82 W13       29.89R
PARK RAPIDS    MOSUNNY   66  61  84 NW14      29.84R
MAHNOMEN       FAIR      64  61  90 W13       29.86R
$$
MNZ006-009>011-018-025>026-241400-
   North Central Minnesota

CITY           SKY/WX    TMP DP  RH WIND       PRES   REMARKS
BAUDETTE       CLOUDY    63  60  90 W10       29.75R
FLAG ISLAND    CLOUDY    63  61  94 W15G23    29.72R
INTL FALLS     PTSUNNY   67  62  84 W12       29.72R
WASKISH        MOSUNNY   66  61  82 W14G21    29.78R
BIG FORK       SUNNY     70  61  73 W7        29.78R
LONGVILLE      SUNNY     66  64  94 NW5       29.81R
GRAND RAPIDS   PTSUNNY   69  65  86 NW8       29.81R
ORR            MOSUNNY   70  63  78 W5        29.72R
COOK           PTSUNNY   70  64  83 W8        29.76R
WALKER         FAIR      64  60  87 NW12      29.81S
$$
MNZ012-019>021-037-241400-
   Northeast Minnesota

CITY           SKY/WX    TMP DP  RH WIND       PRES   REMARKS
DULUTH         CLOUDY    68  67  96 W9        29.78R
ELY            CLOUDY    68  66  94 W6        29.74R
HIBBING        MOSUNNY   67  66  97 W6        29.76S
EVELETH        CLOUDY    68  67  96 W6        29.77R
DULUTH HARBOR  CLOUDY    66  64  94 SW14      29.76R
TWO HARBORS    HAZE      68  63  83 SW7       29.74R VSB<1/4
SILVER BAY     PTSUNNY   70  66  88 S5        29.74R
GRAND MARAIS     N/A     62  60  93 CALM      29.72R
G MARAIS ARPRT CLOUDY    64  61  88 CALM      29.76S FOG
$$
MNZ029>031-032-039>041-046>048-054>057-064-241400-
   West Central Minnesota

CITY           SKY/WX    TMP DP  RH WIND       PRES   REMARKS
FERGUS FALLS   SUNNY     64  63  94 NW9       29.90R
WHEATON        SUNNY     68  63  83 W6        29.93R
MORRIS         SUNNY     66  63  88 NW12      29.90R
ALEXANDRIA     SUNNY     67  61  81 NW13      29.90R
ELBOW LAKE     FAIR      64  61  91 W10       29.92R
WADENA         SUNNY     64  61  88 W9        29.86R
GLENWOOD       SUNNY     66  63  88 W9        29.90R
APPLETON       SUNNY     70  61  73 NW8       29.91R
BENSON         SUNNY     70  61  73 N9        29.91R
ORTONVILLE     SUNNY     70  59  68 NW12G17   29.91S
MADISON        SUNNY     70  61  73 NW10      29.92R
WILLMAR        FAIR      68  64  88 NW14      29.91R
$$
MNZ033>034-036-042>043-049>051-058-059-241400-
   Central Minnesota

CITY           SKY/WX    TMP DP  RH WIND       PRES   REMARKS
ST CLOUD       SUNNY     72  68  87 W12       29.85R
SAUK CENTRE    FAIR      67  63  85 W8        29.89R
PAYNESVILLE    SUNNY     68  65  92 W12       29.89R
AITKIN         SUNNY     72  64  78 W6        29.79S
PINE RIVER     SUNNY     66  63  88 W6        29.86R
BRAINERD       SUNNY     69  64  84 W8        29.83R
STAPLES        SUNNY     64  63  94 W10       29.85R
LONG PRAIRIE   FAIR      68  61  77 W10       29.88R
LITTLE FALLS   SUNNY     70  63  78 W9        29.85R
LITCHFIELD     SUNNY     72  66  83 NW8G16    29.88R
BUFFALO        SUNNY     72  67  84 SW6       29.86R
MAPLE LAKE     SUNNY     73  69  87 W7        29.86R
HUTCHINSON     SUNNY     71  68  90 W7        29.89R
$$
MNZ037-044-045-052-053-241400-
   East Central Minnesota

CITY           SKY/WX    TMP DP  RH WIND       PRES   REMARKS
PRINCETON      SUNNY     73  70  88 W7        29.83R
MORA           SUNNY     70  70 100 W5        29.82S
CAMBRIDGE      SUNNY     75  66  73 SW5       29.80S
RUSH CITY      SUNNY     71  69  92 SW3       29.81S
MOOSE LAKE     FOG       66  64  94 SW3       29.77S VSB 3/4
HINCKLEY       CLOUDY    70  70 100 SW5       29.80S FOG
CLOQUET        CLOUDY    66  64  94 W9        29.78R
MCGREGOR       SUNNY     68  66  94 W7        29.80R
$$
MNZ071>073-080-081-089-090-097-098-241400-
   Southwest Minnesota

CITY           SKY/WX    TMP DP  RH WIND       PRES   REMARKS
MONTEVIDEO     SUNNY     72  64  78 N13       29.93R
GRANITE FALLS  MOSUNNY   69  65  86 W10       29.92R
CANBY          MOSUNNY   69  61  76 W8        29.94R
MARSHALL       MOSUNNY   69  63  81 NW9       29.93R
REDWOOD FALLS  MOSUNNY   72  62  71 NW10      29.91R
OLIVIA         MOSUNNY   70  64  83 NW7       29.90R
PIPESTONE      CLOUDY    70  66  88 NW9       29.96R
WINDOM         SUNNY     73  63  68 NW16      29.93R
WORTHINGTON    MOSUNNY   70  62  76 MISG      29.95R
JACKSON        SUNNY     72  63  73 NW7       29.94R
TRACY          MOSUNNY   71  64  79 NW9       29.94S
SLAYTON        MOSUNNY   70  64  80 NW9G16    29.96R
$$
MNZ065>067-074>077-082>085-091>093-241400-
   South Central Minnesota

CITY           SKY/WX    TMP DP  RH WIND       PRES   REMARKS
MANKATO        SUNNY     73  66  78 NW12      29.89R
NEW ULM        SUNNY     72  68  88 NW15      29.89R
ST JAMES       SUNNY     68  64  88 NW12      29.91R
FAIRMONT       SUNNY     73  48  40 NW12      29.89R
GLENCOE        SUNNY     72  69  92 W12       29.86R
FARIBAULT      SUNNY     75  70  83 NW7       29.86R
OWATONNA       SUNNY     75  70  83 W8        29.86R
WASECA         SUNNY     72  68  88 NW8       29.88R
ALBERT LEA     SUNNY     75  72  88 N10       29.86R
$$
MNZ078>079-086>088-094>096-241400-
   Southeast Minnesota

CITY           SKY/WX    TMP DP  RH WIND       PRES   REMARKS
ROCHESTER      CLOUDY    77  75  93 NW10      29.84R
RED WING       PTSUNNY   77  73  88 NW6       29.80R
DODGE CENTER   PTSUNNY   75  70  83 NW10      29.85R
WINONA         CLOUDY    77  73  88 CALM      29.79R
AUSTIN         CLOUDY    75  73  94 NW14G21   29.84R
PRESTON        CLOUDY    76  74  92 W9        29.84R FOG
$$
ABBREVIATIONS USED IN REMARKS
   TC - TEMPERATURES IN CELSIUS
  WCI - WIND CHILL INDEX
   HX - HEAT INDEX
  VSB - VISIBILITY
$$




USA.gov is the U.S. government's official web portal to all federal, state and local government web resources and services.